| time (UTC) | temp C | wind direction | speed KPH | gust KPH | rain 1hr cm | rain 24hr cm | rain mn cm | humidity % | barometer mb |
| 20260503030010 | 13 | 274 | 3.2 | 8.0 | 0.00 | 0.20 | 0.00 | 84 | 1014.7 |
| 20260503025523 | 13 | 274 | 4.8 | 8.0 | 0.00 | 0.20 | 0.00 | 84 | 1014.7 |
| 20260503025019 | 13 | 276 | 6.4 | 9.7 | 0.00 | 0.20 | 0.00 | 84 | 1014.6 |
| 20260503024525 | 13 | 266 | 4.8 | 11.3 | 0.00 | 0.20 | 0.00 | 84 | 1014.7 |
| 20260503024022 | 14 | 280 | 6.4 | 11.3 | 0.00 | 0.20 | 0.00 | 84 | 1014.6 |
| 20260503023527 | 14 | 281 | 6.4 | 9.7 | 0.00 | 0.20 | 0.00 | 84 | 1014.7 |
| 20260503023016 | 14 | 272 | 4.8 | 9.7 | 0.00 | 0.20 | 0.00 | 84 | 1014.7 |
| 20260503022512 | 14 | 274 | 4.8 | 8.0 | 0.00 | 0.20 | 0.00 | 84 | 1014.7 |
| 20260503022030 | 14 | 275 | 4.8 | 8.0 | 0.00 | 0.20 | 0.00 | 84 | 1014.8 |
| 20260503021535 | 14 | 274 | 4.8 | 8.0 | 0.00 | 0.20 | 0.00 | 84 | 1014.9 |
| 20260503021012 | 14 | 291 | 3.2 | 9.7 | 0.00 | 0.20 | 0.00 | 84 | 1014.8 |
| 20260503020511 | 14 | 294 | 3.2 | 9.7 | 0.00 | 0.20 | 0.00 | 84 | 1014.9 |
| 20260503020016 | 14 | 287 | 3.2 | 8.0 | 0.00 | 0.20 | 0.00 | 84 | 1014.9 |
| 20260503015532 | 14 | 289 | 1.6 | 8.0 | 0.00 | 0.20 | 0.00 | 84 | 1014.9 |
| 20260503014512 | 14 | 278 | 3.2 | 11.3 | 0.00 | 0.20 | 0.00 | 84 | 1015.0 |
| 20260503014016 | 14 | 268 | 4.8 | 8.0 | 0.00 | 0.20 | 0.00 | 84 | 1015.0 |
| 20260503013535 | 15 | 261 | 4.8 | 11.3 | 0.00 | 0.20 | 0.00 | 84 | 1015.1 |
| 20260503013020 | 15 | 257 | 1.6 | 12.9 | 0.00 | 0.20 | 0.00 | 84 | 1015.1 |
| 20260503012518 | 15 | 264 | 6.4 | 12.9 | 0.00 | 0.20 | 0.00 | 84 | 1015.2 |
| 20260503012023 | 15 | 260 | 4.8 | 8.0 | 0.00 | 0.20 | 0.00 | 84 | 1015.3 |
| 20260503011521 | 15 | 269 | 3.2 | 4.8 | 0.00 | 0.20 | 0.00 | 84 | 1015.3 |
| 20260503011032 | 15 | 273 | 0.0 | 4.8 | 0.00 | 0.20 | 0.00 | 84 | 1015.3 |
| 20260503010529 | 15 | 273 | 3.2 | 6.4 | 0.00 | 0.20 | 0.00 | 84 | 1015.3 |
| 20260503010035 | 15 | 273 | 3.2 | 9.7 | 0.00 | 0.20 | 0.00 | 84 | 1015.3 |
| 20260503005523 | 15 | 270 | 4.8 | 9.7 | 0.00 | 0.20 | 0.00 | 84 | 1015.4 |
| 20260503005048 | 15 | 265 | 1.6 | 4.8 | 0.00 | 0.20 | 0.00 | 84 | 1015.4 |
| 20260503004525 | 15 | 264 | 1.6 | 8.0 | 0.00 | 0.20 | 0.00 | 84 | 1015.5 |
| 20260503004033 | 15 | 264 | 6.4 | 11.3 | 0.00 | 0.20 | 0.00 | 84 | 1015.6 |
| 20260503003530 | 15 | 264 | 6.4 | 12.9 | 0.00 | 0.20 | 0.00 | 84 | 1015.7 |
| 20260503003055 | 15 | 255 | 8.0 | 12.9 | 0.00 | 0.20 | 0.00 | 83 | 1015.7 |
| 20260503002522 | 15 | 257 | 6.4 | 11.3 | 0.00 | 0.20 | 0.00 | 83 | 1015.6 |
| 20260503002020 | 15 | 228 | 3.2 | 6.4 | 0.00 | 0.20 | 0.00 | 83 | 1015.7 |
| 20260503001525 | 15 | 246 | 1.6 | 8.0 | 0.00 | 0.20 | 0.00 | 83 | 1015.8 |
| 20260503001050 | 15 | 245 | 1.6 | 12.9 | 0.00 | 0.20 | 0.00 | 83 | 1015.8 |
| 20260503000527 | 15 | 251 | 3.2 | 12.9 | 0.00 | 0.20 | 0.00 | 83 | 1015.8 |
| 20260503000012 | 15 | 269 | 6.4 | 11.3 | 0.00 | 0.20 | 0.00 | 83 | 1015.8 |
| 20260502235616 | 15 | 251 | 6.4 | 11.3 | 0.00 | 0.20 | 0.00 | 83 | 1015.9 |
| 20260502235016 | 15 | 231 | 4.8 | 8.0 | 0.00 | 0.20 | 0.00 | 83 | 1015.9 |
| 20260502234515 | 15 | 278 | 3.2 | 8.0 | 0.00 | 0.20 | 0.00 | 83 | 1015.9 |
| 20260502234012 | 15 | 276 | 4.8 | 8.0 | 0.00 | 0.20 | 0.00 | 83 | 1015.9 |
| 20260502233515 | 15 | 270 | 6.4 | 8.0 | 0.00 | 0.20 | 0.00 | 83 | 1016.0 |
| 20260502233020 | 15 | 261 | 6.4 | 9.7 | 0.00 | 0.20 | 0.00 | 83 | 1016.1 |
| 20260502232510 | 15 | 287 | 4.8 | 9.7 | 0.00 | 0.20 | 0.00 | 83 | 1016.1 |
| 20260502232027 | 15 | 282 | 3.2 | 12.9 | 0.00 | 0.20 | 0.00 | 83 | 1016.1 |
| 20260502231533 | 15 | 270 | 8.0 | 12.9 | 0.00 | 0.20 | 0.00 | 83 | 1016.1 |
| 20260502231011 | 15 | 272 | 8.0 | 12.9 | 0.00 | 0.20 | 0.00 | 83 | 1016.1 |
| 20260502230530 | 15 | 249 | 4.8 | 11.3 | 0.00 | 0.20 | 0.00 | 83 | 1016.1 |
| 20260502230035 | 15 | 270 | 4.8 | 14.5 | 0.00 | 0.20 | 0.00 | 83 | 1016.2 |
| 20260502225524 | 15 | 270 | 6.4 | 14.5 | 0.00 | 0.20 | 0.00 | 83 | 1016.2 |
| 20260502225029 | 15 | 269 | 6.4 | 14.5 | 0.00 | 0.20 | 0.00 | 83 | 1016.1 |
| 20260502224528 | 15 | 276 | 9.7 | 14.5 | 0.00 | 0.20 | 0.00 | 83 | 1016.2 |
| 20260502224026 | 15 | 278 | 11.3 | 12.9 | 0.00 | 0.20 | 0.05 | 83 | 1016.2 |
| 20260502223531 | 15 | 294 | 8.0 | 12.9 | 0.00 | 0.20 | 0.05 | 83 | 1016.1 |
| 20260502223016 | 16 | 270 | 8.0 | 12.9 | 0.00 | 0.20 | 0.05 | 83 | 1016.2 |
| 20260502222533 | 16 | 263 | 9.7 | 12.9 | 0.00 | 0.20 | 0.05 | 83 | 1016.1 |
| 20260502222029 | 16 | 279 | 9.7 | 12.9 | 0.00 | 0.20 | 0.05 | 83 | 1016.2 |
| 20260502221015 | 16 | 284 | 4.8 | 11.3 | 0.00 | 0.20 | 0.05 | 83 | 1016.3 |
| 20260502220514 | 16 | 284 | 6.4 | 11.3 | 0.00 | 0.20 | 0.05 | 82 | 1016.2 |
| 20260502220047 | 16 | 282 | 6.4 | 12.9 | 0.00 | 0.20 | 0.05 | 82 | 1016.3 |
| 20260502215518 | 16 | 270 | 8.0 | 16.1 | 0.00 | 0.20 | 0.05 | 82 | 1016.3 |
| 20260502215016 | 16 | 276 | 11.3 | 16.1 | 0.00 | 0.20 | 0.05 | 82 | 1016.3 |
| 20260502214521 | 16 | 276 | 11.3 | 14.5 | 0.00 | 0.20 | 0.05 | 82 | 1016.3 |
| 20260502214046 | 16 | 265 | 9.7 | 16.1 | 0.00 | 0.20 | 0.05 | 82 | 1016.3 |
| 20260502213510 | 16 | 265 | 12.9 | 16.1 | 0.00 | 0.20 | 0.05 | 82 | 1016.2 |
| 20260502213023 | 16 | 250 | 11.3 | 16.1 | 0.00 | 0.20 | 0.05 | 82 | 1016.3 |
| 20260502212054 | 16 | 282 | 6.4 | 12.9 | 0.00 | 0.20 | 0.05 | 82 | 1016.3 |
| 20260502211511 | 16 | 276 | 6.4 | 16.1 | 0.00 | 0.20 | 0.05 | 82 | 1016.2 |
| 20260502211036 | 16 | 267 | 11.3 | 16.1 | 0.00 | 0.20 | 0.05 | 82 | 1016.2 |
| 20260502210515 | 16 | 270 | 8.0 | 14.5 | 0.00 | 0.20 | 0.05 | 81 | 1016.2 |
| 20260502210037 | 16 | 261 | 8.0 | 17.7 | 0.00 | 0.20 | 0.05 | 81 | 1016.1 |
| 20260502205541 | 16 | 269 | 6.4 | 17.7 | 0.00 | 0.20 | 0.05 | 81 | 1016.1 |
| 20260502205016 | 16 | 269 | 11.3 | 17.7 | 0.00 | 0.20 | 0.05 | 81 | 1016.1 |
| 20260502204521 | 16 | 276 | 11.3 | 17.7 | 0.00 | 0.20 | 0.05 | 81 | 1016.0 |
| 20260502204018 | 16 | 263 | 9.7 | 17.7 | 0.00 | 0.20 | 0.05 | 81 | 1015.9 |
| 20260502203515 | 16 | 237 | 9.7 | 17.7 | 0.00 | 0.20 | 0.05 | 81 | 1015.9 |
| 20260502203030 | 16 | 273 | 11.3 | 17.7 | 0.00 | 0.20 | 0.05 | 81 | 1015.9 |
| 20260502202517 | 16 | 266 | 11.3 | 17.7 | 0.00 | 0.20 | 0.05 | 81 | 1015.7 |
| 20260502202030 | 16 | 273 | 11.3 | 16.1 | 0.00 | 0.20 | 0.05 | 81 | 1015.6 |
| 20260502201548 | 16 | 273 | 12.9 | 16.1 | 0.00 | 0.20 | 0.05 | 81 | 1015.6 |
| 20260502201032 | 16 | 284 | 6.4 | 17.7 | 0.00 | 0.20 | 0.05 | 81 | 1015.6 |
| 20260502200024 | 16 | 253 | 4.8 | 20.9 | 0.00 | 0.20 | 0.05 | 81 | 1015.5 |
| 20260502195533 | 17 | 291 | 6.4 | 20.9 | 0.00 | 0.20 | 0.05 | 81 | 1015.4 |
| 20260502195037 | 17 | 242 | 6.4 | 17.7 | 0.00 | 0.20 | 0.05 | 81 | 1015.5 |
| 20260502194020 | 17 | 245 | 3.2 | 19.3 | 0.00 | 0.20 | 0.05 | 81 | 1015.3 |
| 20260502193603 | 17 | 232 | 14.5 | 17.7 | 0.00 | 0.20 | 0.05 | 80 | 1015.4 |
| 20260502193024 | 17 | 249 | 14.5 | 19.3 | 0.00 | 0.20 | 0.05 | 80 | 1015.4 |
| 20260502192537 | 17 | 261 | 8.0 | 19.3 | 0.00 | 0.20 | 0.05 | 80 | 1015.4 |
| 20260502192015 | 17 | 266 | 8.0 | 17.7 | 0.00 | 0.20 | 0.05 | 80 | 1015.4 |
| 20260502191520 | 17 | 276 | 8.0 | 17.7 | 0.00 | 0.20 | 0.05 | 79 | 1015.3 |
| 20260502190528 | 17 | 249 | 14.5 | 24.1 | 0.00 | 0.20 | 0.05 | 78 | 1015.3 |
| 20260502190026 | 17 | 190 | 8.0 | 24.1 | 0.00 | 0.20 | 0.05 | 77 | 1015.3 |
| 20260502185038 | 17 | 207 | 3.2 | 20.9 | 0.00 | 0.20 | 0.05 | 76 | 1015.2 |
| 20260502184513 | 17 | 190 | 11.3 | 19.3 | 0.00 | 0.20 | 0.05 | 74 | 1015.2 |
| 20260502184011 | 17 | 190 | 6.4 | 19.3 | 0.00 | 0.20 | 0.05 | 74 | 1015.2 |
| 20260502183537 | 17 | 190 | 3.2 | 17.7 | 0.00 | 0.20 | 0.05 | 75 | 1015.2 |
| 20260502183015 | 18 | 190 | 11.3 | 19.3 | 0.00 | 0.20 | 0.05 | 75 | 1015.3 |
| 20260502182525 | 18 | 228 | 8.0 | 19.3 | 0.00 | 0.20 | 0.05 | 75 | 1015.4 |
| 20260502182028 | 18 | 190 | 12.9 | 25.7 | 0.00 | 0.20 | 0.05 | 74 | 1015.4 |
| 20260502181534 | 18 | 190 | 16.1 | 25.7 | 0.00 | 0.20 | 0.05 | 73 | 1015.4 |
| 20260502181012 | 18 | 190 | 14.5 | 22.5 | 0.00 | 0.20 | 0.05 | 72 | 1015.4 |
| 20260502180559 | 18 | 190 | 8.0 | 22.5 | 0.00 | 0.20 | 0.05 | 72 | 1015.3 |
| 20260502164018 | 19 | 261 | 12.9 | 22.5 | 0.00 | 0.20 | 0.05 | 71 | 1015.6 |
| 20260502163523 | 19 | 272 | 9.7 | 24.1 | 0.00 | 0.20 | 0.05 | 71 | 1015.5 |
| 20260502163048 | 19 | 190 | 17.7 | 24.1 | 0.00 | 0.20 | 0.05 | 70 | 1015.6 |
| 20260502162523 | 19 | 283 | 9.7 | 17.7 | 0.00 | 0.20 | 0.05 | 71 | 1015.6 |
| 20260502162022 | 19 | 230 | 9.7 | 17.7 | 0.00 | 0.20 | 0.05 | 71 | 1015.7 |
| 20260502161519 | 19 | 178 | 8.0 | 17.7 | 0.00 | 0.20 | 0.05 | 71 | 1015.6 |
| 20260502161045 | 19 | 214 | 9.7 | 20.9 | 0.00 | 0.20 | 0.05 | 70 | 1015.6 |
| 20260502160530 | 19 | 185 | 6.4 | 19.3 | 0.00 | 0.20 | 0.05 | 69 | 1015.8 |
| 20260502152016 | 19 | 253 | 19.3 | 27.4 | 0.00 | 0.20 | 0.05 | 70 | 1016.1 |
| 20260502151514 | 19 | 241 | 6.4 | 19.3 | 0.00 | 0.20 | 0.05 | 70 | 1016.2 |
| 20260502151019 | 19 | 126 | 3.2 | 25.7 | 0.00 | 0.20 | 0.05 | 72 | 1016.1 |
| 20260502150518 | 19 | 261 | 16.1 | 25.7 | 0.00 | 0.20 | 0.05 | 71 | 1016.2 |
| 20260502130531 | 19 | 190 | 19.3 | 33.8 | 0.00 | 0.20 | 0.05 | 74 | 1017.0 |
| 20260502123543 | 18 | 239 | 16.1 | 30.6 | 0.00 | 0.20 | 0.05 | 73 | 1017.0 |
| 20260502123028 | 18 | 241 | 19.3 | 29.0 | 0.00 | 0.20 | 0.05 | 73 | 1017.1 |
| 20260502122517 | 18 | 266 | 6.4 | 24.1 | 0.00 | 0.20 | 0.05 | 73 | 1017.1 |
| 20260502122046 | 19 | 199 | 526.3 | 526.3 | 0.00 | 0.00 | 0.05 | 73 | 1017.0 |
| 20260502121521 | 19 | 274 | 6.4 | 24.1 | 0.00 | 0.20 | 0.05 | 75 | 1017.1 |
| 20260502121028 | 18 | 268 | 4.8 | 25.7 | 0.00 | 0.20 | 0.05 | 76 | 1017.1 |
| 20260502120642 | 18 | 252 | 16.1 | 25.7 | 0.00 | 0.20 | 0.05 | 75 | 1025.0 |
| 20260502115519 | 18 | 190 | 6.4 | 24.1 | 0.00 | 0.20 | 0.05 | 77 | 1017.2 |
| 20260502115018 | 18 | 190 | 12.9 | 27.4 | 0.00 | 0.20 | 0.05 | 77 | 1017.3 |
| 20260502114024 | 18 | 231 | 12.9 | 25.7 | 0.00 | 0.20 | 0.05 | 78 | 1017.3 |
| 20260502113550 | 18 | 255 | 9.7 | 22.5 | 0.10 | 0.20 | 0.05 | 80 | 1017.3 |
| 20260502113034 | 18 | 278 | 6.4 | 19.3 | 0.10 | 0.20 | 0.05 | 80 | 1017.4 |
| 20260502112526 | 17 | 190 | 14.5 | 19.3 | 0.10 | 0.20 | 0.05 | 81 | 1017.4 |
| 20260502112025 | 17 | 190 | 4.8 | 20.9 | 0.10 | 0.20 | 0.05 | 82 | 1017.4 |
| 20260502111530 | 17 | 190 | 9.7 | 20.9 | 0.10 | 0.20 | 0.05 | 82 | 1017.5 |
| 20260502111014 | 17 | 190 | 8.0 | 19.3 | 0.10 | 0.20 | 0.05 | 83 | 1017.5 |
| 20260502110557 | 17 | 190 | 9.7 | 20.9 | 0.10 | 0.20 | 0.05 | 83 | 1017.5 |
| 20260502105535 | 17 | 190 | 16.1 | 25.7 | 0.20 | 0.20 | 0.05 | 84 | 1017.6 |
| 20260502105012 | 16 | 190 | 9.7 | 22.5 | 0.20 | 0.20 | 0.05 | 84 | 1017.6 |
| 20260502104558 | 16 | 241 | 16.1 | 22.5 | 0.20 | 0.20 | 0.05 | 84 | 1017.7 |
| 20260502104014 | 16 | 190 | 4.8 | 20.9 | 0.20 | 0.20 | 0.05 | 84 | 1017.7 |
| 20260502103519 | 16 | 169 | 9.7 | 20.9 | 0.10 | 0.10 | 0.03 | 84 | 1017.7 |
| 20260502103036 | 17 | 190 | 3.2 | 20.9 | 0.10 | 0.10 | 0.03 | 84 | 1017.7 |
| 20260502102553 | 16 | 190 | 9.7 | 17.7 | 0.10 | 0.10 | 0.03 | 84 | 1017.7 |
| 20260502102044 | 16 | 190 | 4.8 | 14.5 | 0.10 | 0.10 | 0.03 | 84 | 1017.7 |
| 20260502101527 | 16 | 226 | 4.8 | 12.9 | 0.10 | 0.10 | 0.03 | 83 | 1017.7 |
| 20260502101032 | 16 | 172 | 8.0 | 17.7 | 0.10 | 0.10 | 0.03 | 83 | 1017.8 |
| 20260502100529 | 16 | 253 | 3.2 | 17.7 | 0.10 | 0.10 | 0.03 | 83 | 1017.8 |
| 20260502091526 | 17 | 230 | 11.3 | 19.3 | 0.00 | 0.00 | 0.00 | 74 | 1017.3 |
| 20260502091024 | 17 | 273 | 9.7 | 19.3 | 0.00 | 0.00 | 0.00 | 74 | 1017.3 |
| 20260502090616 | 17 | 268 | 6.4 | 14.5 | 0.00 | 0.00 | 0.00 | 75 | 1017.2 |
| 20260502071530 | 16 | 172 | 9.7 | 17.7 | 0.00 | 0.00 | 0.00 | 83 | 1017.2 |
| 20260502071055 | 16 | 157 | 6.4 | 12.9 | 0.00 | 0.00 | 0.00 | 83 | 1017.3 |
| 20260502070531 | 16 | 232 | 4.8 | 12.9 | 0.00 | 0.00 | 0.00 | 84 | 1017.3 |
| 20260502070038 | 16 | 228 | 8.0 | 12.9 | 0.00 | 0.00 | 0.00 | 84 | 1017.3 |
| 20260502065015 | 16 | 168 | 4.8 | 8.0 | 0.00 | 0.00 | 0.00 | 84 | 1017.3 |
| 20260502064513 | 15 | 163 | 6.4 | 8.0 | 0.00 | 0.00 | 0.00 | 84 | 1017.3 |
| 20260502064020 | 15 | 145 | 4.8 | 9.7 | 0.00 | 0.00 | 0.00 | 84 | 1017.3 |
| 20260502063602 | 15 | 166 | 4.8 | 9.7 | 0.00 | 0.00 | 0.00 | 84 | 1017.2 |
| 20260502063014 | 15 | 181 | 8.0 | 9.7 | 0.00 | 0.00 | 0.00 | 84 | 1017.2 |
| 20260502062531 | 15 | 157 | 4.8 | 9.7 | 0.00 | 0.00 | 0.00 | 84 | 1017.2 |
| 20260502062029 | 15 | 172 | 6.4 | 9.7 | 0.00 | 0.00 | 0.00 | 84 | 1017.1 |
| 20260502061614 | 15 | 167 | 6.4 | 9.7 | 0.00 | 0.00 | 0.00 | 84 | 1017.1 |
| 20260502061015 | 15 | 159 | 6.4 | 9.7 | 0.00 | 0.00 | 0.00 | 84 | 1017.0 |
| 20260502060513 | 15 | 178 | 6.4 | 9.7 | 0.00 | 0.00 | 0.00 | 84 | 1017.0 |
| 20260502060012 | 15 | 171 | 4.8 | 11.3 | 0.00 | 0.00 | 0.00 | 84 | 1017.0 |
| 20260502055530 | 15 | 181 | 6.4 | 11.3 | 0.00 | 0.00 | 0.00 | 84 | 1017.0 |
| 20260502055034 | 15 | 170 | 6.4 | 9.7 | 0.00 | 0.00 | 0.00 | 84 | 1016.9 |
| 20260502054514 | 15 | 172 | 8.0 | 9.7 | 0.00 | 0.00 | 0.00 | 84 | 1016.9 |
| 20260502054100 | 15 | 145 | 3.2 | 6.4 | 0.00 | 0.00 | 0.00 | 84 | 1016.9 |
| 20260502053515 | 15 | 168 | 3.2 | 8.0 | 0.00 | 0.00 | 0.00 | 84 | 1016.9 |
| 20260502052548 | 15 | 166 | 4.8 | 9.7 | 0.00 | 0.00 | 0.00 | 84 | 1017.0 |
| 20260502052052 | 15 | 170 | 6.4 | 9.7 | 0.00 | 0.00 | 0.00 | 84 | 1017.0 |
| 20260502051016 | 15 | 166 | 6.4 | 9.7 | 0.00 | 0.00 | 0.00 | 83 | 1016.9 |
| 20260502050541 | 15 | 176 | 6.4 | 8.0 | 0.00 | 0.00 | 0.00 | 83 | 1016.9 |
| 20260502050032 | 15 | 224 | 0.0 | 0.0 | 0.00 | 0.00 | 0.00 | 83 | 1016.9 |
| 20260502045516 | 15 | 224 | 0.0 | 0.0 | 0.00 | 0.00 | 0.00 | 82 | 1016.9 |
| 20260502045042 | 15 | 224 | 0.0 | 0.0 | 0.00 | 0.00 | 0.00 | 82 | 1016.8 |
| 20260502044520 | 15 | 224 | 0.0 | 0.0 | 0.00 | 0.00 | 0.00 | 83 | 1017.0 |
| 20260502044032 | 15 | 226 | 0.0 | 0.0 | 0.00 | 0.00 | 0.00 | 82 | 1017.0 |
| 20260502043530 | 15 | 226 | 0.0 | 0.0 | 0.00 | 0.00 | 0.00 | 82 | 1017.0 |
| 20260502043114 | 15 | 226 | 0.0 | 0.0 | 0.00 | 0.00 | 0.00 | 82 | 1016.9 |
| 20260502042525 | 16 | 226 | 0.0 | 1.6 | 0.00 | 0.00 | 0.00 | 82 | 1017.0 |
| 20260502042011 | 16 | 226 | 0.0 | 3.2 | 0.00 | 0.00 | 0.00 | 82 | 1017.0 |
| 20260502041527 | 16 | 226 | 1.6 | 3.2 | 0.00 | 0.00 | 0.00 | 82 | 1017.0 |
| 20260502041032 | 16 | 226 | 1.6 | 3.2 | 0.00 | 0.00 | 0.00 | 82 | 1017.1 |
| 20260502040557 | 16 | 226 | 0.0 | 4.8 | 0.00 | 0.00 | 0.00 | 82 | 1017.0 |
| 20260502040013 | 16 | 226 | 1.6 | 4.8 | 0.00 | 0.00 | 0.00 | 81 | 1017.2 |
| 20260502035530 | 16 | 229 | 1.6 | 4.8 | 0.00 | 0.00 | 0.00 | 81 | 1017.1 |
| 20260502035026 | 16 | 229 | 1.6 | 4.8 | 0.00 | 0.00 | 0.00 | 81 | 1017.1 |
| 20260502034027 | 16 | 229 | 0.0 | 4.8 | 0.00 | 0.00 | 0.00 | 81 | 1017.2 |
| 20260502033532 | 16 | 229 | 0.0 | 4.8 | 0.00 | 0.00 | 0.00 | 81 | 1017.2 |
| 20260502033031 | 16 | 229 | 1.6 | 4.8 | 0.00 | 0.00 | 0.00 | 80 | 1017.3 |
| 20260502032546 | 16 | 219 | 1.6 | 4.8 | 0.00 | 0.00 | 0.00 | 80 | 1017.2 |
| 20260502032030 | 16 | 219 | 1.6 | 4.8 | 0.00 | 0.00 | 0.00 | 80 | 1017.3 |
| 20260502031515 | 16 | 234 | 0.0 | 6.4 | 0.00 | 0.00 | 0.00 | 80 | 1017.3 |
| 20260502031020 | 16 | 234 | 0.0 | 6.4 | 0.00 | 0.00 | 0.00 | 79 | 1017.4 |
| 20260502030533 | 16 | 235 | 0.0 | 3.2 | 0.00 | 0.00 | 0.00 | 79 | 1017.5 |